Observations
| Time | Sensor | AQI | SAQ | Temp °C | Hum % | Pres Pa | CO μg/m³ | H₂S μg/m³ | NO μg/m³ | NO₂ μg/m³ | O₃ μg/m³ | SO₂ μg/m³ | CO₂e PPM | VOC PPM | PM1 μg/m³ | PM2.5 μg/m³ | PM4 μg/m³ | PM10 μg/m³ | TPS µm |
|---|---|---|---|---|---|---|---|---|---|---|---|---|---|---|---|---|---|---|---|
| Tuesday 11 August 2026 | |||||||||||||||||||
| 18:24 | Trim Patrick St | 3 | 37.9 | 21 | 69,760 | 0 | 12.7 | 0.25 | 17.81 | 83.37 | 27.31 | 5.43 | 12.34 | 13.57 | |||||
| 18:23 | Trim Patrick St | 3 | 37.9 | 21 | 69,740 | 0 | 14.22 | 0.26 | 17.27 | 79.37 | 27.23 | 3.71 | 10.71 | 11.78 | |||||
| 18:22 | Trim Patrick St | 3 | 37.9 | 22 | 69,740 | 0 | 22.32 | 0.23 | 15.67 | 107.92 | 29.67 | 3.71 | 10.67 | 11.73 | |||||
| 18:21 | Trim Patrick St | 3 | 37.8 | 21 | 69,742 | 0 | 12.82 | 0.26 | 15.69 | 121.08 | 28.29 | 3.71 | 10.71 | 11.78 | |||||
| 18:20 | Trim Patrick St | 3 | 37.8 | 21 | 69,748 | 0 | 4.07 | 0.26 | 14.87 | 83.58 | 26.99 | 3.71 | 10.73 | 11.8 | |||||
| 18:19 | Trim Patrick St | 3 | 37.8 | 22 | 69,760 | 0 | 17.48 | 0.2 | 15.37 | 90.47 | 28.32 | 3.71 | 11.49 | 12.64 | |||||
| 18:18 | Trim Market St | 3 | 32.3 | 25 | 66,414 | 0 | 26.66 | 0.38 | 36.04 | 68.83 | 1.09 | 0.71 | 3.54 | 3.89 | |||||
| 18:18 | Trim Patrick St | 3 | 37.8 | 21 | 69,772 | 0 | 13.31 | 0.24 | 16.82 | 68.18 | 26.41 | 4.57 | 11.52 | 12.67 | |||||
| 18:17 | Trim Market St | 3 | 32.3 | 24 | 66,410 | 0 | 22.84 | 0.38 | 25.42 | 66.93 | 1.07 | 1.43 | 4.65 | 5.11 | |||||
| 18:17 | Trim Patrick St | 3 | 37.8 | 21 | 69,758 | 0 | 17.64 | 0.24 | 17.05 | 96.08 | 28.48 | 2.86 | 9.88 | 10.87 | |||||
| 18:16 | Trim Market St | 3 | 32.4 | 24 | 66,412 | 0 | 25.71 | 0.37 | 32.3 | 64.93 | 0.98 | 2.14 | 5.2 | 5.73 | |||||
| 18:16 | Trim Patrick St | 3 | 37.8 | 21 | 69,770 | 0 | 15.91 | 0.25 | 17.23 | 97.24 | 27.49 | 3.71 | 10.73 | 11.8 | |||||
| 18:15 | Trim Market St | 3 | 32.5 | 24 | 66,410 | 0 | 23.34 | 0.36 | 27.05 | 63 | 1.02 | 0.71 | 4.66 | 5.12 | |||||
| 18:15 | Trim Patrick St | 3 | 37.8 | 21 | 69,732 | 0 | 15.58 | 0.2 | 14.74 | 87.6 | 28.36 | 2.86 | 9.05 | 9.95 | |||||
| 18:14 | Trim Patrick St | 3 | 37.8 | 21 | 69,736 | 0 | 15.77 | 0.24 | 22.02 | 124.78 | 27.53 | 2.86 | 9.9 | 10.89 | |||||
| 18:13 | Trim Market St | 3 | 32.6 | 24 | 66,396 | 0 | 25.22 | 0.37 | 27.35 | 67.59 | 1.52 | 0.71 | 5.22 | 5.74 | |||||
| 18:13 | Trim Patrick St | 3 | 37.9 | 21 | 69,715 | 0 | 11.56 | 0.21 | 14.71 | 75.13 | 27.05 | 2.86 | 9.87 | 10.86 | |||||
| 18:12 | Trim Market St | 3 | 32.6 | 24 | 66,416 | 0 | 26.67 | 0.4 | 39.94 | 63.06 | 1.07 | 0.71 | 4.68 | 5.15 | |||||
| 18:12 | Trim Patrick St | 3 | 37.8 | 21 | 69,715 | 0 | 21.35 | 0.25 | 25.48 | 102.78 | 27.94 | 3.71 | 9.91 | 10.9 | |||||
| 18:11 | Trim Patrick St | 3 | 37.9 | 21 | 69,715 | 0 | 16.66 | 0.19 | 17.85 | 102 | 27.63 | 2.86 | 9.08 | 9.99 | |||||